IRIDIUM 33 DEB, 40996

Orbit data source: Space-Track

IRIDIUM 33 DEB, 40996 is space debris in LEO originally from a launch on Sun, 14 Sep 1997 UTC launched from the Tyuratam Missile And Space Complex (TTMTR). The debris from Iridium 33, an American commercial communications satellite, has been tracked extensively since its accidental collision with the defunct Russian satellite Cosmos 2251 in 2009. This event, occurring at high speed in low Earth orbit (LEO), generated thousands of pieces of space debris, significantly increasing the risk of further collisions. The Iridium 33 debris cloud has impacted space traffic management and orbital debris mitigation strategies, making it a subject of ongoing study in space situational awareness.

Loading next visibility...
Identifier
40996, 1997-051ABJ
Orbit
LEO
Country
Flag of USUS
Related business
Manufacturer
Unknown
Mission
Spacecraft
Bus & Motor
Unknown
Mass
Unknown
Launch date (UTC)
1997-09-14 (29 years ago)
Launch vehicle
Unknown
Launch site
Tyuratam Missile And Space Complex (TTMTR)
Object type
Payload
Rocket body
Debris
Shape & HBR
Unknown shape, 0.1 m
Radar Cross Section
Small (<0.1 m²)

Expand to show TLE details & history
Last TLE update: 2 days ago

TLE from 2 days ago
0 IRIDIUM 33 DEB
1 40996U 97051ABJ 26206.88885352  .00044015  00000-0  22968-2 0  9996
2 40996  86.3449 254.4724 0001560 207.3145 327.5359 15.15751654658773
Epoch: 2026-07-25T21:19Z
TLE epoch observation values (Epoch: 2026-07-25T21:19:56.944Z)
Latitude
5.05764°
Longitude
170.56832°
Altitude
520.439 km
Speed
7.604 km/s
True Right ascension
04h 56m 36s
True Declination
5° 01' 35"
Sunlit
Object was in daylight at epoch
Visualization orbit readout
Latitude
Unknown
Longitude
Unknown
Altitude
Unknown
Speed
Unknown
Apparent Right ascension
Unknown
Apparent Declination
Unknown
Sunlit
N/A
Visualization observer readout
Local Sidereal Time
20:03:25
Azimuth
Unknown
Elevation
Unknown
Doppler factor
Unknown
Orbital elements
Apogee altitude
516.624 km
Perigee altitude
514.473 km
Semi-major axis
6,893.686 km
Eccentricity
0.00016
Inclination
86.3449°
RAAN
254.4724°
Arg. of periapsis
207.3145°
True anomaly
327.5263°
Mean anomaly
327.5359°
Eccentric anomaly
327.5311°
Mean motion
3.79198 °/min
Orbital period
94.94 mins
BSTAR
0.0022968
Loading maneuver chart data...
Computing Atmospheric mass density...
Loading historical data...
Loading historical data...
Loading historical data...
Loading historical data...
Loading historical data...
Loading historical data...
Loading historical data...

Documentation

Showing up to 5 results
|